北斗 3 (BEIDOU 3)

Basic Information
目录编号:
36287
目录名称:
BEIDOU 3
国际标识:
2010-001A
轨道中心:
EARTH
卫星名称:
北斗 3
卫星全名:
北斗 3 (BEIDOU 3)
卫星状态:
在轨 (已飞行5901 天)
发射日期:
2010-01-16 UTC
国别 :
中国 (CN)
星等 :
--
Orbit Information
数据来源 国际轨道数据 AOE轨道数据
星历时间 2026-03-13T18:55:38+0800
16小时前
查看轨道信息
2026-03-14T01:00:00+0800
10小时前
查看轨道信息
半长轴 42164.336km 42164.364km
偏心率 0.0004479 0.0004467
轨道倾角 4.068° 4.069°
近地点辐角 285.010° 284.534°
升交点赤经 60.657° 60.656°
平近点角 129.802° 221.619°
近地点 35767.313km 35767.392km
远地点 35805.085km 35805.062km
周期 1436.077分钟 1436.078分钟
每日圈数 1.002732 1.002731
Detailed Information
卫星平台:
东方红三号
平衡模式:
三轴稳定
制造商(研发单位):
中国空间技术研究院
制造商所在国:
中国
使用方式:
暂无
Satellite Introduction
北斗卫星导航系统是中国着眼于国家安全和经济社会发展需要,自主建设运行的全球卫星导航系统,是为全球用户提供全天候、全天时、高精度的定位、导航和授时服务的国家重要时空基础设施。该卫星仍在工作。
2D Orbit Map
3D Orbit Map
Orbit Altitude Analysis Chart
Orbit Inclination Analysis Chart
Orbit Comprehensive Analysis Chart
View Comprehensive Chart